TimeCST,TemperatureF,Dew PointF,Humidity,Sea Level PressureIn,VisibilityMPH,Wind Direction,Wind SpeedMPH,Gust SpeedMPH,PrecipitationIn,Events,Conditions,WindDirDegrees,DateUTC
12:15 AM,50.9,46.8,86,29.71,10.0,South,15.0,-,N/A,,Clear,180,2013-01-12 06:15:00
12:35 AM,50.5,46.6,86,29.72,10.0,South,12.7,-,N/A,,Clear,180,2013-01-12 06:35:00
12:55 AM,50.5,46.6,86,29.72,10.0,South,9.2,-,N/A,,Clear,180,2013-01-12 06:55:00
1:15 AM,52.3,46.8,81,29.72,10.0,SSW,13.8,18.4,N/A,,Clear,200,2013-01-12 07:15:00
1:35 AM,52.5,46.4,80,29.72,10.0,South,12.7,17.3,N/A,,Clear,190,2013-01-12 07:35:00
1:55 AM,52.7,46.6,80,29.74,10.0,SSW,12.7,-,N/A,,Clear,210,2013-01-12 07:55:00
2:15 AM,52.7,46.6,80,29.74,10.0,SSW,13.8,-,N/A,,Clear,210,2013-01-12 08:15:00
2:35 AM,53.6,46.4,77,29.75,10.0,SW,15.0,20.7,N/A,,Clear,220,2013-01-12 08:35:00
2:55 AM,53.6,46.6,77,29.75,10.0,SW,16.1,-,N/A,,Clear,220,2013-01-12 08:55:00
3:15 AM,52.9,46.4,79,29.75,10.0,SW,15.0,-,N/A,,Clear,220,2013-01-12 09:15:00
3:35 AM,53.1,46.4,78,29.75,10.0,SW,16.1,21.9,N/A,,Clear,220,2013-01-12 09:35:00
3:55 AM,53.1,46.2,78,29.75,10.0,SW,16.1,-,N/A,,Clear,220,2013-01-12 09:55:00
4:15 AM,53.4,46.4,77,29.75,10.0,SW,13.8,-,N/A,,Clear,220,2013-01-12 10:15:00
4:35 AM,53.6,46.0,76,29.74,10.0,SW,13.8,-,N/A,,Clear,220,2013-01-12 10:35:00
4:55 AM,52.9,46.2,78,29.75,10.0,SW,11.5,18.4,N/A,,Clear,220,2013-01-12 10:55:00
5:15 AM,52.9,46.0,78,29.77,10.0,SW,12.7,-,N/A,,Clear,230,2013-01-12 11:15:00
5:35 AM,52.9,45.9,77,29.78,10.0,SW,13.8,18.4,N/A,,Clear,230,2013-01-12 11:35:00
5:55 AM,52.9,45.9,77,29.79,10.0,SW,13.8,-,N/A,,Clear,230,2013-01-12 11:55:00
6:15 AM,52.9,45.9,77,29.80,10.0,WSW,16.1,-,N/A,,Clear,240,2013-01-12 12:15:00
6:35 AM,52.9,45.5,76,29.81,10.0,WSW,16.1,-,N/A,,Clear,240,2013-01-12 12:35:00
6:55 AM,52.3,45.0,76,29.82,10.0,WSW,16.1,21.9,N/A,,Clear,250,2013-01-12 12:55:00
7:15 AM,51.6,43.5,74,29.85,10.0,WNW,18.4,25.3,N/A,,Clear,290,2013-01-12 13:15:00
7:35 AM,44.6,38.1,78,29.88,7.0,WNW,13.8,19.6,N/A,,Clear,290,2013-01-12 13:35:00
7:55 AM,43.7,38.3,81,29.90,7.0,West,10.4,-,N/A,,Clear,270,2013-01-12 13:55:00
8:15 AM,43.0,37.4,81,29.91,7.0,WNW,8.1,-,N/A,,Clear,290,2013-01-12 14:15:00
8:35 AM,41.5,35.2,78,29.92,10.0,WNW,9.2,-,N/A,,Clear,290,2013-01-12 14:35:00
8:55 AM,40.3,33.8,78,29.92,10.0,WNW,10.4,-,N/A,,Clear,290,2013-01-12 14:55:00
9:15 AM,39.6,33.8,80,29.94,10.0,WNW,16.1,-,N/A,,Clear,290,2013-01-12 15:15:00
9:35 AM,39.6,34.2,81,29.94,10.0,WNW,10.4,-,N/A,,Clear,290,2013-01-12 15:35:00
9:55 AM,39.6,34.0,80,29.97,10.0,West,13.8,-,N/A,,Clear,280,2013-01-12 15:55:00
10:15 AM,39.6,34.7,83,29.98,10.0,West,12.7,16.1,N/A,,Scattered Clouds,280,2013-01-12 16:15:00
10:35 AM,39.7,34.0,80,29.98,10.0,WNW,12.7,-,N/A,,Clear,290,2013-01-12 16:35:00
10:55 AM,39.6,33.3,78,29.97,10.0,WNW,11.5,-,N/A,,Scattered Clouds,290,2013-01-12 16:55:00
11:15 AM,39.6,33.8,80,29.95,10.0,West,9.2,-,N/A,,Scattered Clouds,280,2013-01-12 17:15:00
11:35 AM,39.6,34.3,82,29.96,10.0,West,6.9,-,N/A,,Mostly Cloudy,280,2013-01-12 17:35:00
11:55 AM,39.4,34.0,81,29.96,10.0,West,10.4,-,N/A,,Overcast,280,2013-01-12 17:55:00
12:15 PM,38.3,32.2,79,29.96,10.0,WNW,12.7,-,N/A,,Mostly Cloudy,290,2013-01-12 18:15:00
12:35 PM,37.6,31.6,79,29.95,10.0,WNW,12.7,18.4,N/A,,Clear,290,2013-01-12 18:35:00
12:55 PM,36.9,31.8,82,29.94,10.0,WNW,13.8,-,N/A,,Scattered Clouds,300,2013-01-12 18:55:00
1:15 PM,36.0,30.7,81,29.94,10.0,WNW,12.7,-,N/A,,Clear,300,2013-01-12 19:15:00
1:35 PM,35.6,30.2,81,29.96,10.0,WNW,11.5,-,N/A,,Clear,300,2013-01-12 19:35:00
1:55 PM,36.0,30.4,80,29.95,10.0,WNW,10.4,-,N/A,,Scattered Clouds,300,2013-01-12 19:55:00
2:15 PM,36.0,30.2,80,29.97,10.0,WNW,9.2,-,N/A,,Overcast,300,2013-01-12 20:15:00
2:35 PM,35.6,30.4,81,29.97,10.0,WNW,8.1,-,N/A,,Overcast,300,2013-01-12 20:35:00
2:55 PM,35.1,30.2,82,29.99,10.0,WNW,10.4,-,N/A,,Overcast,300,2013-01-12 20:55:00
3:15 PM,35.1,29.8,81,30.00,10.0,WNW,10.4,-,N/A,,Overcast,300,2013-01-12 21:15:00
3:35 PM,35.1,29.5,80,30.00,10.0,WNW,10.4,-,N/A,,Overcast,300,2013-01-12 21:35:00
3:55 PM,34.7,29.1,80,30.00,10.0,WNW,11.5,-,N/A,,Overcast,300,2013-01-12 21:55:00
4:15 PM,34.3,28.9,81,30.00,10.0,WNW,10.4,-,N/A,,Overcast,300,2013-01-12 22:15:00
4:35 PM,33.4,28.4,82,29.98,10.0,NW,11.5,-,N/A,,Overcast,310,2013-01-12 22:35:00
4:55 PM,33.1,28.4,83,29.97,10.0,NW,11.5,-,N/A,,Overcast,320,2013-01-12 22:55:00
5:15 PM,32.5,27.7,82,29.95,10.0,NW,12.7,-,N/A,,Overcast,310,2013-01-12 23:15:00
5:35 PM,32.5,28.2,84,29.96,10.0,NW,9.2,-,N/A,,Overcast,320,2013-01-12 23:35:00
5:55 PM,32.0,26.4,80,29.94,10.0,NW,9.2,-,N/A,,Overcast,320,2013-01-12 23:55:00
6:15 PM,32.0,26.4,80,29.97,10.0,WNW,5.8,-,N/A,,Overcast,300,2013-01-13 00:15:00
6:35 PM,31.8,25.9,79,29.97,10.0,NW,5.8,-,N/A,,Overcast,310,2013-01-13 00:35:00
6:55 PM,31.6,26.2,80,29.96,10.0,NW,10.4,-,N/A,,Overcast,310,2013-01-13 00:55:00
7:15 PM,31.3,25.9,80,29.96,10.0,NW,16.1,-,N/A,,Overcast,310,2013-01-13 01:15:00
7:35 PM,30.9,25.9,82,29.95,10.0,NW,18.4,-,N/A,,Overcast,320,2013-01-13 01:35:00
7:55 PM,30.2,25.5,83,29.97,10.0,NW,16.1,-,N/A,Rain,Freezing Rain,320,2013-01-13 01:55:00
8:15 PM,29.8,24.1,79,29.98,10.0,NW,20.7,25.3,N/A,,Freezing Rain,320,2013-01-13 02:15:00
8:35 PM,29.1,25.2,85,29.98,7.0,NNW,15.0,-,N/A,Rain,Freezing Rain,330,2013-01-13 02:35:00
8:55 PM,28.9,25.5,87,29.96,5.0,NW,15.0,-,N/A,Rain,Freezing Rain,320,2013-01-13 02:55:00
9:15 PM,28.8,25.3,87,29.93,5.0,NNW,16.1,-,0.01,Rain,Freezing Rain,330,2013-01-13 03:15:00
9:35 PM,28.6,25.3,88,29.92,4.0,NNW,16.1,-,0.01,Rain,Freezing Rain,330,2013-01-13 03:35:00
9:55 PM,28.4,24.8,86,29.92,5.0,NNW,13.8,20.7,N/A,Rain,Freezing Rain,340,2013-01-13 03:55:00
10:15 PM,28.8,25.5,88,29.92,4.0,North,10.4,-,0.01,Rain,Freezing Rain,350,2013-01-13 04:15:00
10:35 PM,28.8,25.3,87,29.91,5.0,North,10.4,-,0.01,Rain,Freezing Rain,350,2013-01-13 04:35:00
10:55 PM,28.9,25.7,88,29.92,7.0,NNW,9.2,-,0.02,Rain,Freezing Rain,340,2013-01-13 04:55:00
11:15 PM,28.9,26.1,89,29.93,5.0,NNW,11.5,-,N/A,Rain,Freezing Rain,330,2013-01-13 05:15:00
11:35 PM,28.9,26.2,90,29.94,4.0,NW,12.7,-,0.01,Rain,Freezing Rain,320,2013-01-13 05:35:00
11:55 PM,28.0,25.3,90,29.94,2.5,NW,11.5,-,0.02,Snow,Light Snow,320,2013-01-13 05:55:00